Location: Newark
(22.3060°N, 114.2134°E)
Time: 21:38:58
(UTC+00:00)

Vanguard 2 - Pass Details

Date: 12 August 2021
Orbit: 553 x 2937 km, 32.9° (Epoch: 26 September)

Event Time Altitude Azimuth Distance (km) Brightness Sun altitude
Rises 21:34:12 0° 301° (WNW) 2,746 10.0 -6.4°
Reaches altitude 10° 21:36:28 10° 308° (NW) 1,817 9.1 -6.0°
Maximum altitude 21:40:15 45° 22° (NNE) 782 8.0 -5.1°
Drops below altitude 10° 21:44:40 10° 96° (E) 2,119 11.1 -4.2°
Sets 21:47:30 0° 103° (ESE) 3,273 12.0 -3.5°
